Date String (YYYY-MM-DD hh:mm:ss) UTC,Instrument flags,Ambient pressure (hPa),Sample flow (lpm),Bypass flow (lpm),Sample temperature (°C),Ambient temperature (°C),ASC tube jacket temperature (°C),LED temperature (°C),Box temperature (°C),Sample RH (%),Span deviation,Mass concentration (μg/m³),Mass concentration (μg/m³),Mass concentration (μg/m³)
DateTimeUTC,F1_M11,P_M11,Q1_M11,Q2_M11,T1_M11,T2_M11,T3_M11,T4_M11,T5_M11,U1_M11,ZSPAN_M11,X0_M11,X2_M11,X1_M11
2022-06-06 06:00:00,,0821.4,5.02,0.00,29.5,28.1,00.0,38.5,31.3,23.7,0000.0,0007.83,0003.64,0002.14
2022-06-06 06:01:00,,0821.4,4.99,0.00,29.5,28.2,00.0,38.4,31.3,23.9,0000.0,0007.57,0003.54,0002.13
2022-06-06 06:02:00,,0821.4,5.00,0.00,29.5,28.2,00.0,38.4,31.4,24.3,0000.0,0007.47,0003.51,0002.13
2022-06-06 06:03:00,,0821.4,5.00,0.00,29.5,28.3,00.0,38.4,31.4,24.6,0000.0,0007.55,0003.49,0002.15
2022-06-06 06:04:00,,0821.4,5.00,0.00,29.5,28.3,00.0,38.4,31.4,24.4,0000.0,0007.56,0003.51,0002.17
2022-06-06 06:05:00,,0821.4,5.01,0.00,29.5,28.4,00.0,38.4,31.4,23.8,0000.0,0007.62,0003.52,0002.14
2022-06-06 06:06:00,,0821.4,4.99,0.00,29.6,28.4,00.0,38.5,31.4,23.4,0000.0,0007.68,0003.55,0002.14
2022-06-06 06:07:00,,0821.4,5.00,0.00,29.6,28.4,00.0,38.5,31.4,23.7,0000.0,0007.78,0003.58,0002.14
2022-06-06 06:08:00,,0821.4,5.01,0.00,29.6,28.5,00.0,38.5,31.5,23.5,0000.0,0007.97,0003.59,0002.14
2022-06-06 06:09:00,,0821.4,5.01,0.00,29.6,28.5,00.0,38.5,31.5,23.4,0000.0,0008.02,0003.59,0002.14
2022-06-06 06:10:00,,0821.4,4.99,0.00,29.6,28.5,00.0,38.5,31.5,23.5,0000.0,0008.07,0003.61,0002.16
2022-06-06 06:11:00,,0821.3,5.01,0.00,29.6,28.6,00.0,38.5,31.5,23.4,0000.0,0008.19,0003.66,0002.16
2022-06-06 06:12:00,,0821.3,4.99,0.00,29.6,28.6,00.0,38.5,31.5,23.1,0000.0,0008.36,0003.70,0002.18
2022-06-06 06:13:00,,0821.3,4.99,0.00,29.7,28.6,00.0,38.5,31.5,22.9,0000.0,0008.28,0003.67,0002.18
2022-06-06 06:14:00,,0821.2,5.00,0.00,29.7,28.6,00.0,38.5,31.6,22.8,0000.0,0008.39,0003.71,0002.18
2022-06-06 06:15:00,,0821.2,5.01,0.00,29.7,28.7,00.0,38.5,31.6,23.0,0000.0,0008.51,0003.74,0002.18
2022-06-06 06:16:00,,0821.2,5.00,0.00,29.7,28.7,00.0,38.5,31.6,22.8,0000.0,0008.51,0003.74,0002.20
2022-06-06 06:17:00,,0821.1,5.01,0.00,29.7,28.7,00.0,38.5,31.6,22.7,0000.0,0008.59,0003.77,0002.21
2022-06-06 06:18:00,,0821.1,4.99,0.00,29.7,28.7,00.0,38.6,31.6,22.6,0000.0,0008.48,0003.74,0002.22
2022-06-06 06:19:00,,0821.1,5.00,0.00,29.7,28.8,00.0,38.6,31.6,22.3,0000.0,0008.33,0003.72,0002.20
2022-06-06 06:20:00,,0821.1,5.01,0.00,29.8,28.8,00.0,38.6,31.7,22.1,0000.0,0008.41,0003.76,0002.21
2022-06-06 06:21:00,,0821.1,5.00,0.00,29.8,28.8,00.0,38.6,31.7,22.0,0000.0,0008.54,0003.78,0002.20
2022-06-06 06:22:00,,0821.0,4.98,0.00,29.8,28.8,00.0,38.6,31.7,22.0,0000.0,0008.57,0003.74,0002.20
2022-06-06 06:23:00,,0821.0,5.01,0.00,29.8,28.8,00.0,38.6,31.7,22.0,0000.0,0008.50,0003.73,0002.20
2022-06-06 06:24:00,,0821.0,5.00,0.00,29.8,28.8,00.0,38.6,31.7,22.0,0000.0,0008.56,0003.72,0002.19
2022-06-06 06:25:00,,0821.0,4.99,0.00,29.8,28.9,00.0,38.6,31.7,21.8,0000.0,0008.21,0003.63,0002.18
2022-06-06 06:26:00,,0821.0,4.99,0.00,29.8,28.9,00.0,38.7,31.7,21.8,0000.0,0008.09,0003.62,0002.18
2022-06-06 06:27:00,,0820.9,5.00,0.00,29.8,28.9,00.0,38.7,31.8,22.2,0000.0,0008.12,0003.65,0002.20
2022-06-06 06:28:00,,0820.9,5.01,0.00,29.8,28.9,00.0,38.7,31.8,23.4,0000.0,0008.25,0003.62,0002.19
2022-06-06 06:29:00,,0820.9,4.99,0.00,29.9,28.9,00.0,38.7,31.8,23.6,0000.0,0008.38,0003.61,0002.20
2022-06-06 06:30:00,,0821.0,5.01,0.00,29.9,28.9,00.0,38.7,31.7,22.8,0000.0,0008.30,0003.62,0002.23
2022-06-06 06:31:00,,0821.0,4.99,0.00,29.9,28.9,00.0,38.7,31.7,22.8,0000.0,0008.13,0003.57,0002.24
2022-06-06 06:32:00,,0821.0,5.00,0.00,29.9,28.9,00.0,38.7,31.8,22.9,0000.0,0008.25,0003.58,0002.26
2022-06-06 06:33:00,,0821.0,5.00,0.00,29.9,29.0,00.0,38.7,31.8,22.8,0000.0,0008.83,0003.60,0002.29
2022-06-06 06:34:00,,0820.9,5.01,0.00,29.9,29.0,00.0,38.8,31.8,22.5,0000.0,0008.95,0003.65,0002.30
2022-06-06 06:35:00,,0821.0,4.99,0.00,29.9,29.0,00.0,38.8,31.8,22.3,0000.0,0009.00,0003.68,0002.33
2022-06-06 06:36:00,,0821.0,4.99,0.00,30.0,29.0,00.0,38.8,31.9,22.3,0000.0,0009.16,0003.69,0002.35
2022-06-06 06:37:00,,0821.0,5.00,0.00,30.0,29.0,00.0,38.8,31.9,23.6,0000.0,0009.29,0003.69,0002.36
2022-06-06 06:38:00,,0820.9,5.01,0.00,30.0,29.1,00.0,38.8,31.9,25.1,0000.0,0009.25,0003.68,0002.39
2022-06-06 06:39:00,,0821.0,4.99,0.00,30.0,29.1,00.0,38.8,31.9,25.9,0000.0,0009.12,0003.73,0002.43
2022-06-06 06:40:00,,0821.0,4.99,0.00,30.0,29.1,00.0,38.8,31.9,26.5,0000.0,0009.12,0003.77,0002.46
2022-06-06 06:41:00,,0821.0,5.00,0.00,30.0,29.1,00.0,38.8,31.9,26.0,0000.0,0009.20,0003.78,0002.47
2022-06-06 06:42:00,,0821.0,5.01,0.00,30.0,29.1,00.0,38.9,31.9,26.3,0000.0,0009.40,0003.79,0002.49
2022-06-06 06:43:00,,0821.1,4.99,0.00,30.0,29.1,00.0,38.9,31.9,26.7,0000.0,0009.35,0003.79,0002.52
2022-06-06 06:44:00,,0821.2,5.00,0.00,30.1,29.1,00.0,38.9,32.0,26.9,0000.0,0008.97,0003.84,0002.53
2022-06-06 06:45:00,,0821.1,5.01,0.00,30.1,29.1,00.0,38.9,32.0,27.2,0000.0,0009.32,0003.86,0002.56
2022-06-06 06:46:00,,0821.1,5.00,0.00,30.1,29.1,00.0,38.9,32.0,28.3,0000.0,0009.50,0003.92,0002.60
2022-06-06 06:47:00,,0821.1,4.98,0.00,30.1,29.2,00.0,38.9,32.0,29.0,0000.0,0009.54,0004.04,0002.67
2022-06-06 06:48:00,,0821.1,5.00,0.00,30.1,29.2,00.0,38.9,32.0,29.7,0000.0,0009.51,0004.10,0002.72
2022-06-06 06:49:00,,0821.2,5.00,0.00,30.1,29.2,00.0,38.9,32.0,29.6,0000.0,0009.72,0004.21,0002.79
2022-06-06 06:50:00,,0821.3,4.99,0.00,30.1,29.2,00.0,39.0,32.0,29.5,0000.0,0009.93,0004.30,0002.83
2022-06-06 06:51:00,,0821.3,5.00,0.00,30.1,29.2,00.0,39.0,32.0,29.1,0000.0,0009.95,0004.33,0002.86
2022-06-06 06:52:00,,0821.3,5.00,0.00,30.1,29.2,00.0,39.0,32.0,29.1,0000.0,0010.02,0004.37,0002.90
2022-06-06 06:53:00,,0821.3,5.02,0.00,30.2,29.2,00.0,39.0,32.0,28.8,0000.0,0010.11,0004.44,0002.94
2022-06-06 06:54:00,,0821.2,5.00,0.00,30.2,29.2,00.0,39.0,32.0,28.6,0000.0,0010.17,0004.51,0002.97
2022-06-06 06:55:00,,0821.2,4.99,0.00,30.2,29.2,00.0,39.0,32.0,28.5,0000.0,0010.12,0004.57,0003.02
2022-06-06 06:56:00,,0821.2,5.01,0.00,30.2,29.2,00.0,39.0,32.0,28.1,0000.0,0009.74,0004.54,0003.05
2022-06-06 06:57:00,,0821.2,4.98,0.00,30.2,28.6,00.0,39.0,31.9,27.6,0000.0,0009.56,0004.48,0003.06
2022-06-06 06:58:00,,0821.1,5.00,0.00,30.1,27.8,00.0,38.9,31.7,27.8,0000.0,0009.72,0004.44,0003.04
2022-06-06 06:59:00,,0821.1,5.00,0.00,30.0,27.5,00.0,38.8,31.6,28.2,0000.0,0009.83,0004.43,0003.05
